Weather History for Springfield, MO

Change the Weather History Date:

Saturday, March 9, 2013

  Actual Average Record
Temperature  
Mean Temperature 59 °F 44 °F  
Max Temperature 72 °F 55 °F 81 °F (1974)
Min Temperature 45 °F 33 °F 5 °F (1932)
Degree Days  
Heating Degree Days 6 21  
Month to date heating degree days 221 198  
Since 1 July heating degree days 3519 3791  
Cooling Degree Days 0 0  
Month to date cooling degree days 0 0  
Year to date cooling degree days 0 0  
Growing Degree Days 9 (Base 50)    
Moisture  
Dew Point 46 °F    
Average Humidity 64    
Maximum Humidity 93    
Minimum Humidity 34    
Precipitation  
Precipitation 0.69 in 0.11 in 2.36 in (1974)
Month to date precipitation 0.77 0.97  
Year to date precipitation 6.11 5.96  
Snow  
Snow 0.00 in - - ()
Month to date snowfall T  
Since 1 July snowfall 7.0  
Snow Depth 0.00 in    
Sea Level Pressure  
Sea Level Pressure 29.82 in    
Wind  
Wind Speed 19 mph (SSE)    
Max Wind Speed 29 mph    
Max Gust Speed 35 mph    
Visibility 8 miles    
Events Rain , Thunderstorm    
T = Trace of Precipitation, MM = Missing Value Source: NWS Daily Summary

Daily Weather History Graph

Daily Weather History Graph

Search for Another Location

Airport:

Trip Planner

Search our weather history database for the weather conditions in past years. The results will help you decide how hot, cold, wet, or windy it might be!

Date:

Astronomy

Mar. 09, 2013 Rise Set
Actual Time 6:32 AM CST 6:15 PM CST
Civil Twilight 6:06 AM CST 6:41 PM CST
Nautical Twilight 5:36 AM CST 7:11 PM CST
Astronomical Twilight 5:06 AM CST 7:42 PM CST
Moon 4:55 AM CST (3/9) 4:19 PM CST (3/9)
Length of Visible Light 12h 34m
Length of Day
11h 42m
Waning Crescent, 5% of the Moon is Illuminated
Mar 9
Waning Crescent
Mar 11
New
Mar 19
First Quarter
Mar 27
Full
Apr 2
Last Quarter

Hourly Weather History & Observations

Time (CST) Temp. Windchill Dew Point Humidity Pressure Visibility Wind Dir Wind Speed Gust Speed Precip Events Conditions
12:52 AM 46.0 °F 38.8 °F 37.9 °F 73% 30.05 in 10.0 mi SSE 18.4 mph - 0.00 in   Overcast
1:52 AM 45.0 °F 37.1 °F 39.0 °F 80% 30.04 in 10.0 mi SSE 19.6 mph - 0.03 in   Overcast
2:52 AM 45.0 °F 37.1 °F 37.9 °F 76% 30.00 in 10.0 mi SSE 19.6 mph - 0.00 in   Overcast
3:52 AM 45.0 °F 37.6 °F 37.9 °F 76% 29.99 in 9.0 mi SSE 17.3 mph - 0.00 in Rain Light Rain
4:52 AM 45.0 °F 37.6 °F 37.9 °F 76% 29.98 in 8.0 mi SSE 17.3 mph - 0.00 in Rain Rain
5:52 AM 46.0 °F 39.3 °F 37.9 °F 73% 29.97 in 10.0 mi SSE 16.1 mph - 0.00 in Rain Light Rain
6:52 AM 46.9 °F - 37.9 °F 71% 29.96 in 10.0 mi SSE 19.6 mph - 0.00 in   Overcast
7:52 AM 48.0 °F - 37.0 °F 66% 29.95 in 10.0 mi SSE 20.7 mph - N/A   Scattered Clouds
8:52 AM 53.1 °F - 37.9 °F 57% 29.93 in 10.0 mi SSE 20.7 mph - N/A   Clear
9:52 AM 57.9 °F - 37.0 °F 46% 29.91 in 10.0 mi SSE 18.4 mph 27.6 mph N/A   Clear
10:52 AM 62.1 °F - 36.0 °F 38% 29.88 in 10.0 mi SSE 21.9 mph 32.2 mph N/A   Clear
11:52 AM 66.9 °F - 37.0 °F 33% 29.85 in 10.0 mi SSE 23.0 mph 29.9 mph N/A   Clear
12:52 PM 68.0 °F - 39.9 °F 36% 29.80 in 10.0 mi SSE 24.2 mph 31.1 mph N/A   Mostly Cloudy
1:52 PM 71.1 °F - 46.0 °F 41% 29.76 in 10.0 mi South 20.7 mph 32.2 mph N/A   Mostly Cloudy
2:52 PM 68.0 °F - 46.0 °F 45% 29.75 in 10.0 mi South 20.7 mph 29.9 mph N/A   Mostly Cloudy
3:52 PM 66.0 °F - 48.9 °F 54% 29.75 in 10.0 mi South 20.7 mph 31.1 mph N/A   Overcast
4:52 PM 64.9 °F - 50.0 °F 58% 29.74 in 10.0 mi South 17.3 mph 26.5 mph N/A   Overcast
5:52 PM 63.0 °F - 52.0 °F 67% 29.74 in 10.0 mi SSE 21.9 mph 29.9 mph N/A   Overcast
6:52 PM 61.0 °F - 53.1 °F 75% 29.73 in 7.0 mi SSE 15.0 mph - 0.00 in Rain Light Rain
7:43 PM 57.0 °F - 55.0 °F 93% 29.73 in 4.0 mi SSE 13.8 mph - 0.06 in Rain , Thunderstorm Light Rain
7:52 PM 57.0 °F - 55.0 °F 93% 29.74 in 5.0 mi SSE 13.8 mph - 0.08 in Rain Rain
8:52 PM 57.9 °F - 55.0 °F 90% 29.73 in 5.0 mi SSE 17.3 mph - 0.16 in Rain Rain
9:09 PM 57.9 °F - 55.0 °F 90% 29.73 in 8.0 mi SSE 17.3 mph - 0.02 in Rain , Thunderstorm Light Rain
9:24 PM 57.9 °F - 55.9 °F 93% 29.73 in 5.0 mi SSE 18.4 mph - 0.05 in Rain Heavy Rain
9:52 PM 59.0 °F - 55.0 °F 87% 29.70 in 10.0 mi SSE 16.1 mph - 0.07 in Rain Light Rain
10:04 PM 57.9 °F - 55.0 °F 90% 29.73 in 9.0 mi SSE 16.1 mph - 0.01 in Rain , Thunderstorm Light Thunderstorms and Rain
10:35 PM 57.9 °F - 55.0 °F 90% 29.73 in 10.0 mi South 12.7 mph - 0.05 in Rain , Thunderstorm Light Rain
10:52 PM 57.9 °F - 55.0 °F 90% 29.71 in 4.0 mi SSE 13.8 mph - 0.12 in Rain , Thunderstorm Heavy Rain
11:03 PM 57.0 °F - 55.0 °F 93% 29.73 in 4.0 mi SSE 12.7 mph - 0.04 in Rain Rain
11:52 PM 57.0 °F - 55.0 °F 93% 29.69 in 5.0 mi SSE 19.6 mph 27.6 mph 0.22 in Rain Light Rain